Time,TemperatureF,DewpointF,PressureIn,WindDirection,WindDirectionDegrees,WindSpeedMPH,WindSpeedGustMPH,Humidity,HourlyPrecipIn,Conditions,Clouds,dailyrainin,SoftwareType,DateUTC
2013-04-17 00:02:00,32.7,28.4,30.26,NE,43,7.0,7.0,84,0.00,,,0.00,Wunderground v.1.15,2013-04-17 05:02:00,
2013-04-17 00:07:00,32.8,28.5,30.26,NE,43,3.0,7.0,84,0.00,,,0.00,Wunderground v.1.15,2013-04-17 05:07:00,
2013-04-17 00:12:00,32.7,28.4,30.26,NE,43,5.0,5.0,84,0.00,,,0.00,Wunderground v.1.15,2013-04-17 05:12:00,
2013-04-17 00:17:00,32.6,28.3,30.26,NE,43,5.0,6.0,84,0.00,,,0.00,Wunderground v.1.15,2013-04-17 05:17:00,
2013-04-17 00:23:00,32.5,28.2,30.26,NE,42,10.0,10.0,84,0.00,,,0.00,Wunderground v.1.15,2013-04-17 05:23:00,
2013-04-17 00:28:00,32.6,28.3,30.25,NE,43,5.0,10.0,84,0.00,,,0.00,Wunderground v.1.15,2013-04-17 05:28:00,
2013-04-17 00:34:00,32.6,28.6,30.26,NE,42,5.0,7.0,85,0.00,,,0.00,Wunderground v.1.15,2013-04-17 05:34:00,
2013-04-17 00:42:00,32.7,28.7,30.26,NE,42,7.0,7.0,85,0.00,,,0.00,Wunderground v.1.15,2013-04-17 05:42:00,
2013-04-17 00:47:00,32.7,28.7,30.26,NE,43,7.0,9.0,85,0.00,,,0.00,Wunderground v.1.15,2013-04-17 05:47:00,
2013-04-17 00:52:00,32.8,28.8,30.26,NE,42,2.0,6.0,85,0.00,,,0.00,Wunderground v.1.15,2013-04-17 05:52:00,
2013-04-17 00:57:00,32.8,28.8,30.27,NE,43,2.0,6.0,85,0.00,,,0.00,Wunderground v.1.15,2013-04-17 05:57:00,
2013-04-17 01:02:00,32.9,28.9,30.27,NE,42,2.0,4.0,85,0.00,,,0.00,Wunderground v.1.15,2013-04-17 06:02:00,
2013-04-17 01:08:00,33.0,29.0,30.27,NE,42,1.0,4.0,85,0.00,,,0.00,Wunderground v.1.15,2013-04-17 06:08:00,
2013-04-17 01:14:00,33.0,29.0,30.27,NE,42,2.0,4.0,85,0.00,,,0.00,Wunderground v.1.15,2013-04-17 06:14:00,
2013-04-17 01:19:00,33.1,29.1,30.27,NE,42,5.0,5.0,85,0.00,,,0.00,Wunderground v.1.15,2013-04-17 06:19:00,
2013-04-17 01:27:00,33.1,29.1,30.26,NE,43,2.0,5.0,85,0.00,,,0.00,Wunderground v.1.15,2013-04-17 06:27:00,
2013-04-17 01:32:00,33.2,29.2,30.26,NE,43,2.0,4.0,85,0.00,,,0.00,Wunderground v.1.15,2013-04-17 06:32:00,
2013-04-17 01:37:00,33.2,29.2,30.26,NE,43,6.0,6.0,85,0.00,,,0.00,Wunderground v.1.15,2013-04-17 06:37:00,
2013-04-17 01:42:00,33.2,29.2,30.26,NE,43,5.0,5.0,85,0.00,,,0.00,Wunderground v.1.15,2013-04-17 06:42:00,
2013-04-17 01:47:00,33.2,29.2,30.26,NE,42,5.0,5.0,85,0.00,,,0.00,Wunderground v.1.15,2013-04-17 06:47:00,
2013-04-17 01:52:00,33.2,29.2,30.26,NE,43,2.0,4.0,85,0.00,,,0.00,Wunderground v.1.15,2013-04-17 06:52:00,
2013-04-17 01:57:00,33.3,29.3,30.26,NE,43,4.0,4.0,85,0.00,,,0.00,Wunderground v.1.15,2013-04-17 06:57:00,
2013-04-17 02:02:00,33.3,29.3,30.25,NE,42,5.0,5.0,85,0.00,,,0.00,Wunderground v.1.15,2013-04-17 07:02:00,
2013-04-17 02:07:00,33.4,29.4,30.25,NE,43,6.0,9.0,85,0.00,,,0.00,Wunderground v.1.15,2013-04-17 07:07:00,
2013-04-17 02:12:00,33.4,29.1,30.25,NE,43,3.0,5.0,84,0.00,,,0.00,Wunderground v.1.15,2013-04-17 07:12:00,
2013-04-17 02:17:00,33.5,29.2,30.25,NE,42,5.0,9.0,84,0.00,,,0.00,Wunderground v.1.15,2013-04-17 07:17:00,
2013-04-17 02:22:00,33.5,29.2,30.25,NE,42,6.0,7.0,84,0.00,,,0.00,Wunderground v.1.15,2013-04-17 07:22:00,
2013-04-17 02:27:00,33.5,29.2,30.25,NE,43,2.0,8.0,84,0.00,,,0.00,Wunderground v.1.15,2013-04-17 07:27:00,
2013-04-17 02:32:00,33.5,29.2,30.25,NE,43,4.0,5.0,84,0.00,,,0.00,Wunderground v.1.15,2013-04-17 07:32:00,
2013-04-17 02:37:00,33.6,29.3,30.25,NE,43,5.0,6.0,84,0.00,,,0.00,Wunderground v.1.15,2013-04-17 07:37:00,
2013-04-17 02:42:00,33.6,29.3,30.25,NE,42,5.0,6.0,84,0.00,,,0.00,Wunderground v.1.15,2013-04-17 07:42:00,
2013-04-17 02:47:00,33.6,29.3,30.26,NE,43,4.0,7.0,84,0.00,,,0.00,Wunderground v.1.15,2013-04-17 07:47:00,
2013-04-17 02:52:00,33.6,29.3,30.26,NE,43,8.0,8.0,84,0.00,,,0.00,Wunderground v.1.15,2013-04-17 07:52:00,
2013-04-17 02:57:00,33.6,29.3,30.26,NE,42,5.0,8.0,84,0.00,,,0.00,Wunderground v.1.15,2013-04-17 07:57:00,
2013-04-17 03:02:00,33.5,29.2,30.25,NE,43,7.0,8.0,84,0.00,,,0.00,Wunderground v.1.15,2013-04-17 08:02:00,
2013-04-17 03:07:00,33.4,29.1,30.26,NE,43,6.0,9.0,84,0.00,,,0.00,Wunderground v.1.15,2013-04-17 08:07:00,
2013-04-17 03:12:00,33.4,28.8,30.25,NE,43,9.0,9.0,83,0.00,,,0.00,Wunderground v.1.15,2013-04-17 08:12:00,
2013-04-17 03:18:00,33.4,28.8,30.24,NE,43,8.0,10.0,83,0.00,,,0.00,Wunderground v.1.15,2013-04-17 08:18:00,
2013-04-17 03:23:00,33.5,29.2,30.24,NE,42,8.0,9.0,84,0.00,,,0.00,Wunderground v.1.15,2013-04-17 08:23:00,
2013-04-17 03:28:00,33.5,29.2,30.23,NE,43,9.0,10.0,84,0.00,,,0.00,Wunderground v.1.15,2013-04-17 08:28:00,
2013-04-17 03:33:00,33.4,28.8,30.22,NE,42,8.0,13.0,83,0.00,,,0.00,Wunderground v.1.15,2013-04-17 08:33:00,
2013-04-17 03:38:00,33.4,28.8,30.22,NE,42,6.0,13.0,83,0.00,,,0.00,Wunderground v.1.15,2013-04-17 08:38:00,
2013-04-17 03:43:00,33.4,28.8,30.22,NE,43,8.0,8.0,83,0.00,,,0.00,Wunderground v.1.15,2013-04-17 08:43:00,
2013-04-17 03:48:00,33.4,28.8,30.21,NE,43,9.0,12.0,83,0.00,,,0.00,Wunderground v.1.15,2013-04-17 08:48:00,
2013-04-17 03:53:00,33.4,28.8,30.19,NE,43,11.0,11.0,83,0.00,,,0.00,Wunderground v.1.15,2013-04-17 08:53:00,
2013-04-17 03:58:00,33.3,28.7,30.19,NE,44,7.0,15.0,83,0.00,,,0.00,Wunderground v.1.15,2013-04-17 08:58:00,
2013-04-17 04:03:00,33.3,28.7,30.18,NE,44,8.0,9.0,83,0.00,,,0.00,Wunderground v.1.15,2013-04-17 09:03:00,
2013-04-17 04:08:00,33.3,28.7,30.17,NE,44,10.0,13.0,83,0.00,,,0.00,Wunderground v.1.15,2013-04-17 09:08:00,
2013-04-17 04:13:00,33.3,28.7,30.17,NE,41,4.0,8.0,83,0.00,,,0.00,Wunderground v.1.15,2013-04-17 09:13:00,
2013-04-17 04:18:00,33.2,28.6,30.17,NE,42,5.0,12.0,83,0.00,,,0.00,Wunderground v.1.15,2013-04-17 09:18:00,
2013-04-17 04:23:00,33.1,28.5,30.16,NE,42,8.0,11.0,83,0.00,,,0.00,Wunderground v.1.15,2013-04-17 09:23:00,
2013-04-17 04:28:00,33.0,28.4,30.16,NE,42,7.0,11.0,83,0.00,,,0.00,Wunderground v.1.15,2013-04-17 09:28:00,
2013-04-17 04:33:00,33.0,28.4,30.16,NE,42,5.0,9.0,83,0.00,,,0.00,Wunderground v.1.15,2013-04-17 09:33:00,
2013-04-17 04:38:00,33.0,28.4,30.15,NE,40,5.0,11.0,83,0.00,,,0.00,Wunderground v.1.15,2013-04-17 09:38:00,
2013-04-17 04:43:00,33.1,28.5,30.17,NE,40,8.0,9.0,83,0.00,,,0.00,Wunderground v.1.15,2013-04-17 09:43:00,
2013-04-17 04:48:00,33.1,28.5,30.17,NE,40,6.0,11.0,83,0.00,,,0.00,Wunderground v.1.15,2013-04-17 09:48:00,
2013-04-17 04:53:00,33.1,28.5,30.18,NE,40,7.0,8.0,83,0.00,,,0.00,Wunderground v.1.15,2013-04-17 09:53:00,
2013-04-17 04:58:00,33.2,28.6,30.17,NE,40,7.0,9.0,83,0.00,,,0.00,Wunderground v.1.15,2013-04-17 09:58:00,
2013-04-17 05:03:00,33.2,28.6,30.18,NE,40,5.0,6.0,83,0.00,,,0.00,Wunderground v.1.15,2013-04-17 10:03:00,
2013-04-17 05:08:00,33.2,28.6,30.19,NE,40,3.0,11.0,83,0.00,,,0.00,Wunderground v.1.15,2013-04-17 10:08:00,
2013-04-17 05:13:00,33.2,28.6,30.18,NE,40,4.0,9.0,83,0.00,,,0.00,Wunderground v.1.15,2013-04-17 10:13:00,
2013-04-17 05:18:00,33.3,28.7,30.20,NE,40,4.0,9.0,83,0.00,,,0.00,Wunderground v.1.15,2013-04-17 10:18:00,
2013-04-17 05:23:00,33.2,28.6,30.21,NE,40,6.0,6.0,83,0.00,,,0.00,Wunderground v.1.15,2013-04-17 10:23:00,
2013-04-17 05:30:00,33.2,28.6,30.22,NE,40,7.0,10.0,83,0.00,,,0.00,Wunderground v.1.15,2013-04-17 10:30:00,
2013-04-17 05:35:00,33.3,28.7,30.22,NE,40,5.0,6.0,83,0.00,,,0.00,Wunderground v.1.15,2013-04-17 10:35:00,
2013-04-17 05:40:00,33.2,28.6,30.22,NE,40,5.0,8.0,83,0.00,,,0.00,Wunderground v.1.15,2013-04-17 10:40:00,
2013-04-17 05:45:00,33.2,28.6,30.23,NE,40,4.0,6.0,83,0.00,,,0.00,Wunderground v.1.15,2013-04-17 10:45:00,
2013-04-17 05:50:00,33.3,29.0,30.23,NE,40,5.0,6.0,84,0.00,,,0.00,Wunderground v.1.15,2013-04-17 10:50:00,
2013-04-17 05:55:00,33.3,29.0,30.22,NE,40,4.0,5.0,84,0.00,,,0.00,Wunderground v.1.15,2013-04-17 10:55:00,
2013-04-17 06:00:00,33.3,29.0,30.21,NE,40,6.0,8.0,84,0.00,,,0.00,Wunderground v.1.15,2013-04-17 11:00:00,
2013-04-17 06:05:00,33.3,28.7,30.20,NE,40,8.0,8.0,83,0.00,,,0.00,Wunderground v.1.15,2013-04-17 11:05:00,
2013-04-17 06:10:00,33.2,28.9,30.18,NE,40,3.0,5.0,84,0.00,,,0.00,Wunderground v.1.15,2013-04-17 11:10:00,
2013-04-17 06:15:00,33.1,28.8,30.17,NE,40,3.0,7.0,84,0.00,,,0.00,Wunderground v.1.15,2013-04-17 11:15:00,
2013-04-17 06:21:00,33.1,28.8,30.16,NE,40,5.0,9.0,84,0.00,,,0.00,Wunderground v.1.15,2013-04-17 11:21:00,
2013-04-17 06:27:00,33.2,28.9,30.14,NE,40,5.0,10.0,84,0.00,,,0.00,Wunderground v.1.15,2013-04-17 11:27:00,
2013-04-17 06:33:00,33.2,28.9,30.14,NE,40,9.0,12.0,84,0.00,,,0.00,Wunderground v.1.15,2013-04-17 11:33:00,
2013-04-17 06:38:00,33.2,28.9,30.13,NE,41,11.0,13.0,84,0.00,,,0.00,Wunderground v.1.15,2013-04-17 11:38:00,
2013-04-17 06:43:00,33.2,28.6,30.11,NE,48,9.0,12.0,83,0.00,,,0.00,Wunderground v.1.15,2013-04-17 11:43:00,
2013-04-17 06:49:00,33.4,28.5,30.13,NE,49,10.0,15.0,82,0.00,,,0.00,Wunderground v.1.15,2013-04-17 11:49:00,
2013-04-17 06:54:00,33.5,28.6,30.14,NE,44,5.0,13.0,82,0.00,,,0.00,Wunderground v.1.15,2013-04-17 11:54:00,
2013-04-17 06:59:00,33.6,28.7,30.14,NE,44,7.0,13.0,82,0.00,,,0.00,Wunderground v.1.15,2013-04-17 11:59:00,
2013-04-17 07:04:00,33.8,28.9,30.14,NE,44,13.0,13.0,82,0.00,,,0.00,Wunderground v.1.15,2013-04-17 12:04:00,
2013-04-17 07:09:00,33.9,28.7,30.15,NE,44,4.0,13.0,81,0.00,,,0.00,Wunderground v.1.15,2013-04-17 12:09:00,
2013-04-17 07:14:00,34.0,28.8,30.16,NE,53,6.0,10.0,81,0.00,,,0.00,Wunderground v.1.15,2013-04-17 12:14:00,
2013-04-17 07:19:00,34.1,28.9,30.15,NE,54,7.0,10.0,81,0.00,,,0.00,Wunderground v.1.15,2013-04-17 12:19:00,
2013-04-17 07:25:00,34.2,29.0,30.15,NE,54,5.0,9.0,81,0.00,,,0.00,Wunderground v.1.15,2013-04-17 12:25:00,
2013-04-17 07:30:00,34.2,29.0,30.16,NE,54,7.0,9.0,81,0.00,,,0.00,Wunderground v.1.15,2013-04-17 12:30:00,
2013-04-17 07:35:00,34.3,29.1,30.17,NE,53,2.0,6.0,81,0.00,,,0.00,Wunderground v.1.15,2013-04-17 12:35:00,
2013-04-17 07:40:00,34.4,29.2,30.17,NE,54,4.0,6.0,81,0.00,,,0.00,Wunderground v.1.15,2013-04-17 12:40:00,
2013-04-17 07:45:00,34.4,29.2,30.18,NE,54,2.0,6.0,81,0.00,,,0.00,Wunderground v.1.15,2013-04-17 12:45:00,
2013-04-17 07:50:00,34.4,29.2,30.19,NE,53,0.0,6.0,81,0.00,,,0.00,Wunderground v.1.15,2013-04-17 12:50:00,
2013-04-17 07:55:00,34.3,29.1,30.21,NE,54,0.0,2.0,81,0.00,,,0.00,Wunderground v.1.15,2013-04-17 12:55:00,
2013-04-17 08:00:00,34.0,29.1,30.22,NE,53,0.0,2.0,82,0.00,,,0.00,Wunderground v.1.15,2013-04-17 13:00:00,
2013-04-17 08:05:00,33.8,28.9,30.22,NE,54,0.0,0.0,82,0.00,,,0.00,Wunderground v.1.15,2013-04-17 13:05:00,
2013-04-17 08:10:00,33.5,28.9,30.20,NE,54,4.0,4.0,83,0.00,,,0.00,Wunderground v.1.15,2013-04-17 13:10:00,
2013-04-17 08:15:00,33.0,28.7,30.20,NE,53,3.0,5.0,84,0.00,,,0.00,Wunderground v.1.15,2013-04-17 13:15:00,
2013-04-17 08:20:00,32.7,28.7,30.20,NE,54,1.0,6.0,85,0.00,,,0.00,Wunderground v.1.15,2013-04-17 13:20:00,
2013-04-17 08:25:00,32.4,28.7,30.20,NE,54,2.0,5.0,86,0.00,,,0.00,Wunderground v.1.15,2013-04-17 13:25:00,
2013-04-17 08:30:00,32.2,28.5,30.19,NE,53,4.0,5.0,86,0.00,,,0.00,Wunderground v.1.15,2013-04-17 13:30:00,
2013-04-17 08:35:00,32.1,28.7,30.18,NE,54,3.0,5.0,87,0.00,,,0.00,Wunderground v.1.15,2013-04-17 13:35:00,
2013-04-17 08:40:00,32.0,28.8,30.17,NE,54,2.0,5.0,88,0.00,,,0.00,Wunderground v.1.15,2013-04-17 13:40:00,
2013-04-17 08:45:00,31.9,28.8,30.17,NE,54,4.0,5.0,88,0.00,,,0.00,Wunderground v.1.15,2013-04-17 13:45:00,
2013-04-17 08:50:00,31.9,28.8,30.17,NE,53,6.0,8.0,88,0.00,,,0.00,Wunderground v.1.15,2013-04-17 13:50:00,
2013-04-17 08:55:00,31.8,28.9,30.16,NE,54,3.0,7.0,89,0.00,,,0.00,Wunderground v.1.15,2013-04-17 13:55:00,
2013-04-17 09:02:00,31.7,28.8,30.15,NE,54,7.0,7.0,89,0.00,,,0.00,Wunderground v.1.15,2013-04-17 14:02:00,
2013-04-17 09:07:00,31.7,28.8,30.14,NE,54,7.0,9.0,89,0.00,,,0.00,Wunderground v.1.15,2013-04-17 14:07:00,
2013-04-17 09:12:00,31.7,28.8,30.13,NE,53,9.0,9.0,89,0.00,,,0.00,Wunderground v.1.15,2013-04-17 14:12:00,
2013-04-17 09:17:00,31.6,29.0,30.12,NE,52,10.0,15.0,90,0.00,,,0.00,Wunderground v.1.15,2013-04-17 14:17:00,
2013-04-17 09:22:00,31.6,29.0,30.11,NE,49,11.0,11.0,90,0.00,,,0.00,Wunderground v.1.15,2013-04-17 14:22:00,
2013-04-17 09:27:00,31.7,29.1,30.10,NE,44,14.0,16.0,90,0.00,,,0.00,Wunderground v.1.15,2013-04-17 14:27:00,
2013-04-17 09:32:00,31.7,29.1,30.10,NE,50,15.0,15.0,90,0.16,,,0.02,Wunderground v.1.15,2013-04-17 14:32:00,
2013-04-17 09:37:00,31.7,29.1,30.10,NE,48,12.0,15.0,90,0.16,,,0.03,Wunderground v.1.15,2013-04-17 14:37:00,
2013-04-17 09:43:00,31.7,29.1,30.11,NE,46,9.0,13.0,90,0.18,,,0.04,Wunderground v.1.15,2013-04-17 14:43:00,
2013-04-17 09:48:00,31.8,29.2,30.10,NE,52,11.0,14.0,90,0.18,,,0.06,Wunderground v.1.15,2013-04-17 14:48:00,
2013-04-17 09:53:00,31.9,29.6,30.10,NE,53,11.0,13.0,91,0.13,,,0.07,Wunderground v.1.15,2013-04-17 14:53:00,
2013-04-17 09:58:00,31.9,29.6,30.09,NE,52,10.0,14.0,91,0.15,,,0.08,Wunderground v.1.15,2013-04-17 14:58:00,
2013-04-17 10:03:00,32.0,29.7,30.07,NE,49,11.0,13.0,91,0.12,,,0.09,Wunderground v.1.15,2013-04-17 15:03:00,
2013-04-17 10:08:00,32.0,29.7,30.06,NE,48,16.0,17.0,91,0.14,,,0.10,Wunderground v.1.15,2013-04-17 15:08:00,
2013-04-17 10:13:00,32.1,29.8,30.07,NE,56,13.0,16.0,91,0.10,,,0.11,Wunderground v.1.15,2013-04-17 15:13:00,
2013-04-17 10:18:00,32.3,30.0,30.06,ENE,57,14.0,18.0,91,0.10,,,0.12,Wunderground v.1.15,2013-04-17 15:18:00,
2013-04-17 10:23:00,32.4,30.1,30.05,ENE,67,14.0,17.0,91,0.10,,,0.12,Wunderground v.1.15,2013-04-17 15:23:00,
2013-04-17 10:28:00,32.5,30.2,30.06,ENE,59,13.0,17.0,91,0.08,,,0.13,Wunderground v.1.15,2013-04-17 15:28:00,
2013-04-17 10:33:00,32.7,30.4,30.07,NE,51,7.0,13.0,91,0.10,,,0.14,Wunderground v.1.15,2013-04-17 15:33:00,
2013-04-17 10:38:00,32.8,30.5,30.07,NE,49,14.0,16.0,91,0.08,,,0.14,Wunderground v.1.15,2013-04-17 15:38:00,
2013-04-17 10:43:00,32.9,30.6,30.08,NE,52,9.0,11.0,91,0.08,,,0.15,Wunderground v.1.15,2013-04-17 15:43:00,
2013-04-17 10:48:00,33.0,30.7,30.08,NE,53,9.0,14.0,91,0.07,,,0.16,Wunderground v.1.15,2013-04-17 15:48:00,
2013-04-17 10:53:00,32.9,30.6,30.08,NE,49,10.0,12.0,91,0.07,,,0.16,Wunderground v.1.15,2013-04-17 15:53:00,
2013-04-17 10:58:00,32.9,30.6,30.08,NE,53,7.0,14.0,91,0.06,,,0.16,Wunderground v.1.15,2013-04-17 15:58:00,
2013-04-17 11:03:00,33.0,30.7,30.08,NE,51,9.0,12.0,91,0.05,,,0.17,Wunderground v.1.15,2013-04-17 16:03:00,
2013-04-17 11:08:00,33.0,30.7,30.09,NE,51,7.0,12.0,91,0.05,,,0.17,Wunderground v.1.15,2013-04-17 16:08:00,
2013-04-17 11:13:00,33.1,30.8,30.09,NE,55,9.0,13.0,91,0.05,,,0.18,Wunderground v.1.15,2013-04-17 16:13:00,
2013-04-17 11:18:00,33.2,30.9,30.09,NE,55,11.0,14.0,91,0.05,,,0.18,Wunderground v.1.15,2013-04-17 16:18:00,
2013-04-17 11:23:00,33.2,30.9,30.09,NE,52,8.0,12.0,91,0.05,,,0.18,Wunderground v.1.15,2013-04-17 16:23:00,
2013-04-17 11:28:00,33.1,30.8,30.09,NE,52,12.0,15.0,91,0.04,,,0.19,Wunderground v.1.15,2013-04-17 16:28:00,
2013-04-17 11:33:00,33.1,30.8,30.09,NE,55,9.0,14.0,91,0.04,,,0.19,Wunderground v.1.15,2013-04-17 16:33:00,
2013-04-17 11:38:00,33.2,30.9,30.09,NE,50,13.0,16.0,91,0.04,,,0.19,Wunderground v.1.15,2013-04-17 16:38:00,
2013-04-17 11:43:00,33.2,30.9,30.08,NE,46,11.0,15.0,91,0.04,,,0.20,Wunderground v.1.15,2013-04-17 16:43:00,
2013-04-17 11:48:00,33.3,31.0,30.09,NE,51,12.0,15.0,91,0.04,,,0.20,Wunderground v.1.15,2013-04-17 16:48:00,
2013-04-17 11:53:00,33.4,31.1,30.09,NE,48,11.0,15.0,91,0.04,,,0.20,Wunderground v.1.15,2013-04-17 16:53:00,
2013-04-17 11:58:00,33.4,31.1,30.09,NE,45,8.0,15.0,91,0.04,,,0.21,Wunderground v.1.15,2013-04-17 16:58:00,
2013-04-17 12:03:00,33.4,31.1,30.09,NE,48,7.0,13.0,91,0.04,,,0.21,Wunderground v.1.15,2013-04-17 17:03:00,
2013-04-17 12:09:00,33.5,31.2,30.08,NE,45,7.0,17.0,91,0.04,,,0.21,Wunderground v.1.15,2013-04-17 17:09:00,
2013-04-17 12:13:00,33.5,31.2,30.08,NE,45,12.0,15.0,91,0.04,,,0.22,Wunderground v.1.15,2013-04-17 17:13:00,
2013-04-17 12:19:00,33.7,31.4,30.07,NE,49,11.0,18.0,91,0.04,,,0.22,Wunderground v.1.15,2013-04-17 17:19:00,
2013-04-17 12:24:00,33.8,31.5,30.05,NE,49,8.0,16.0,91,0.05,,,0.23,Wunderground v.1.15,2013-04-17 17:24:00,
2013-04-17 12:29:00,33.9,31.6,30.04,NE,45,9.0,17.0,91,0.05,,,0.23,Wunderground v.1.15,2013-04-17 17:29:00,
2013-04-17 12:34:00,33.8,31.5,30.04,NE,46,7.0,15.0,91,0.07,,,0.24,Wunderground v.1.15,2013-04-17 17:34:00,
2013-04-17 12:39:00,33.9,31.6,30.03,NE,47,12.0,16.0,91,0.08,,,0.25,Wunderground v.1.15,2013-04-17 17:39:00,
2013-04-17 12:44:00,33.9,31.6,30.02,NE,42,11.0,15.0,91,0.08,,,0.25,Wunderground v.1.15,2013-04-17 17:44:00,
2013-04-17 12:49:00,33.9,31.6,30.03,NE,50,8.0,19.0,91,0.09,,,0.26,Wunderground v.1.15,2013-04-17 17:49:00,
2013-04-17 12:54:00,34.0,31.6,30.02,NE,46,8.0,15.0,91,0.07,,,0.26,Wunderground v.1.15,2013-04-17 17:54:00,
2013-04-17 12:59:00,34.0,31.6,30.02,NE,44,11.0,18.0,91,0.07,,,0.27,Wunderground v.1.15,2013-04-17 17:59:00,
2013-04-17 13:04:00,34.1,31.7,30.02,NE,48,12.0,17.0,91,0.08,,,0.28,Wunderground v.1.15,2013-04-17 18:04:00,
2013-04-17 13:09:00,34.3,31.9,30.01,NE,45,8.0,17.0,91,0.08,,,0.28,Wunderground v.1.15,2013-04-17 18:09:00,
2013-04-17 13:14:00,34.4,32.0,30.01,NE,47,9.0,17.0,91,0.07,,,0.29,Wunderground v.1.15,2013-04-17 18:14:00,
2013-04-17 13:19:00,34.4,32.0,30.01,NE,44,9.0,17.0,91,0.09,,,0.30,Wunderground v.1.15,2013-04-17 18:19:00,
2013-04-17 13:24:00,34.6,32.2,30.02,NE,41,14.0,16.0,91,0.09,,,0.30,Wunderground v.1.15,2013-04-17 18:24:00,
2013-04-17 13:29:00,34.7,32.3,30.01,NE,49,11.0,17.0,91,0.08,,,0.31,Wunderground v.1.15,2013-04-17 18:29:00,
2013-04-17 13:34:00,34.9,32.5,30.01,NE,52,11.0,16.0,91,0.10,,,0.32,Wunderground v.1.15,2013-04-17 18:34:00,
2013-04-17 13:39:00,35.0,32.6,30.01,NE,46,13.0,19.0,91,0.08,,,0.33,Wunderground v.1.15,2013-04-17 18:39:00,
2013-04-17 13:44:00,35.1,32.7,30.01,NE,46,13.0,18.0,91,0.11,,,0.33,Wunderground v.1.15,2013-04-17 18:44:00,
2013-04-17 13:49:00,35.2,32.8,30.02,NE,53,15.0,18.0,91,0.11,,,0.34,Wunderground v.1.15,2013-04-17 18:49:00,
2013-04-17 13:54:00,35.3,32.9,30.02,NE,52,17.0,18.0,91,0.07,,,0.35,Wunderground v.1.15,2013-04-17 18:54:00,
2013-04-17 13:59:00,35.3,32.9,30.01,NE,46,11.0,18.0,91,0.09,,,0.36,Wunderground v.1.15,2013-04-17 18:59:00,
2013-04-17 14:04:00,35.4,33.0,30.00,NE,49,8.0,16.0,91,0.09,,,0.36,Wunderground v.1.15,2013-04-17 19:04:00,
2013-04-17 14:09:00,35.6,33.2,30.00,NE,56,13.0,17.0,91,0.06,,,0.37,Wunderground v.1.15,2013-04-17 19:09:00,
2013-04-17 14:14:00,35.6,33.2,30.00,ENE,61,14.0,18.0,91,0.06,,,0.37,Wunderground v.1.15,2013-04-17 19:14:00,
2013-04-17 14:19:00,35.5,32.9,30.00,NE,55,10.0,18.0,90,0.06,,,0.38,Wunderground v.1.15,2013-04-17 19:19:00,
2013-04-17 14:24:00,35.6,33.2,30.00,NE,47,12.0,15.0,91,0.06,,,0.38,Wunderground v.1.15,2013-04-17 19:24:00,
2013-04-17 14:29:00,35.6,33.2,30.00,NE,47,10.0,16.0,91,0.05,,,0.38,Wunderground v.1.15,2013-04-17 19:29:00,
2013-04-17 14:34:00,35.6,33.2,29.99,NE,51,12.0,16.0,91,0.04,,,0.38,Wunderground v.1.15,2013-04-17 19:34:00,
2013-04-17 14:39:00,35.4,33.0,29.98,NE,48,12.0,17.0,91,0.00,,,0.38,Wunderground v.1.15,2013-04-17 19:39:00,
2013-04-17 14:44:00,35.5,33.1,29.99,NE,49,16.0,18.0,91,0.00,,,0.38,Wunderground v.1.15,2013-04-17 19:44:00,
2013-04-17 14:49:00,35.5,33.1,29.99,NE,45,11.0,18.0,91,0.00,,,0.38,Wunderground v.1.15,2013-04-17 19:49:00,
2013-04-17 14:55:00,35.5,33.1,29.99,NE,51,12.0,16.0,91,0.00,,,0.39,Wunderground v.1.15,2013-04-17 19:55:00,
2013-04-17 15:00:00,35.4,33.0,29.99,NE,49,14.0,19.0,91,0.00,,,0.39,Wunderground v.1.15,2013-04-17 20:00:00,
2013-04-17 15:05:00,35.6,33.2,29.97,NE,43,9.0,16.0,91,0.00,,,0.39,Wunderground v.1.15,2013-04-17 20:05:00,
2013-04-17 15:10:00,35.5,33.1,29.97,NE,56,11.0,18.0,91,0.00,,,0.39,Wunderground v.1.15,2013-04-17 20:10:00,
2013-04-17 15:15:00,35.7,33.3,29.97,NE,52,9.0,14.0,91,0.00,,,0.39,Wunderground v.1.15,2013-04-17 20:15:00,
2013-04-17 15:20:00,35.6,33.2,29.97,NE,39,15.0,20.0,91,0.00,,,0.39,Wunderground v.1.15,2013-04-17 20:20:00,
2013-04-17 15:25:00,35.7,33.3,29.96,NE,45,12.0,19.0,91,0.00,,,0.39,Wunderground v.1.15,2013-04-17 20:25:00,
2013-04-17 15:30:00,35.9,33.5,29.96,NE,53,12.0,19.0,91,0.00,,,0.39,Wunderground v.1.15,2013-04-17 20:30:00,
2013-04-17 15:35:00,35.9,33.5,29.95,NE,44,21.0,21.0,91,0.00,,,0.39,Wunderground v.1.15,2013-04-17 20:35:00,
2013-04-17 15:40:00,36.1,34.0,29.96,NE,53,15.0,15.0,92,0.00,,,0.39,Wunderground v.1.15,2013-04-17 20:40:00,
2013-04-17 15:45:00,36.1,34.0,29.96,NE,56,10.0,17.0,92,0.00,,,0.39,Wunderground v.1.15,2013-04-17 20:45:00,
2013-04-17 15:50:00,36.1,34.0,29.96,NE,50,17.0,17.0,92,0.00,,,0.39,Wunderground v.1.15,2013-04-17 20:50:00,
2013-04-17 15:55:00,36.0,33.6,29.96,NE,56,12.0,18.0,91,0.00,,,0.39,Wunderground v.1.15,2013-04-17 20:55:00,
2013-04-17 16:00:00,36.0,33.6,29.96,ENE,57,14.0,14.0,91,0.00,,,0.39,Wunderground v.1.15,2013-04-17 21:00:00,
2013-04-17 16:05:00,36.1,33.7,29.96,NE,49,10.0,16.0,91,0.00,,,0.39,Wunderground v.1.15,2013-04-17 21:05:00,
2013-04-17 16:10:00,36.0,33.6,29.96,NE,52,12.0,15.0,91,0.00,,,0.39,Wunderground v.1.15,2013-04-17 21:10:00,
2013-04-17 16:15:00,35.9,33.5,29.95,ENE,65,10.0,18.0,91,0.00,,,0.39,Wunderground v.1.15,2013-04-17 21:15:00,
2013-04-17 16:22:00,36.0,33.6,29.94,NE,55,12.0,13.0,91,0.00,,,0.39,Wunderground v.1.15,2013-04-17 21:22:00,
2013-04-17 16:27:00,35.9,33.5,29.93,NE,38,12.0,19.0,91,0.00,,,0.39,Wunderground v.1.15,2013-04-17 21:27:00,
2013-04-17 16:33:00,35.7,33.3,29.93,NE,46,17.0,17.0,91,0.00,,,0.39,Wunderground v.1.15,2013-04-17 21:33:00,
2013-04-17 16:38:00,35.8,33.4,29.92,NE,53,13.0,19.0,91,0.00,,,0.39,Wunderground v.1.15,2013-04-17 21:38:00,
2013-04-17 16:43:00,35.7,33.3,29.92,NE,46,14.0,17.0,91,0.00,,,0.39,Wunderground v.1.15,2013-04-17 21:43:00,
2013-04-17 16:48:00,35.8,33.4,29.92,NE,51,13.0,18.0,91,0.00,,,0.39,Wunderground v.1.15,2013-04-17 21:48:00,
2013-04-17 16:53:00,35.9,33.5,29.91,NE,51,11.0,17.0,91,0.00,,,0.39,Wunderground v.1.15,2013-04-17 21:53:00,
2013-04-17 16:58:00,35.7,33.3,29.90,NE,38,19.0,20.0,91,0.00,,,0.39,Wunderground v.1.15,2013-04-17 21:58:00,
2013-04-17 17:03:00,35.8,33.4,29.91,NE,45,12.0,16.0,91,0.00,,,0.39,Wunderground v.1.15,2013-04-17 22:03:00,
2013-04-17 17:08:00,36.0,33.9,29.91,NE,43,14.0,20.0,92,0.00,,,0.39,Wunderground v.1.15,2013-04-17 22:08:00,
2013-04-17 17:13:00,35.8,33.4,29.91,NE,41,10.0,14.0,91,0.00,,,0.39,Wunderground v.1.15,2013-04-17 22:13:00,
2013-04-17 17:18:00,35.7,33.3,29.90,NNE,33,10.0,16.0,91,0.00,,,0.39,Wunderground v.1.15,2013-04-17 22:18:00,
2013-04-17 17:23:00,35.7,33.3,29.90,NNE,32,19.0,19.0,91,0.00,,,0.39,Wunderground v.1.15,2013-04-17 22:23:00,
2013-04-17 17:28:00,35.6,33.2,29.90,NE,38,7.0,19.0,91,0.00,,,0.39,Wunderground v.1.15,2013-04-17 22:28:00,
2013-04-17 17:33:00,35.6,33.2,29.90,NNE,21,4.0,19.0,91,0.00,,,0.39,Wunderground v.1.15,2013-04-17 22:33:00,
2013-04-17 17:38:00,35.5,33.1,29.89,NE,40,13.0,21.0,91,0.00,,,0.40,Wunderground v.1.15,2013-04-17 22:38:00,
2013-04-17 17:43:00,35.5,33.1,29.88,NE,38,12.0,19.0,91,0.00,,,0.40,Wunderground v.1.15,2013-04-17 22:43:00,
2013-04-17 17:48:00,35.5,33.1,29.89,NE,38,14.0,19.0,91,0.00,,,0.40,Wunderground v.1.15,2013-04-17 22:48:00,
2013-04-17 17:53:00,35.4,33.0,29.90,NE,40,12.0,16.0,91,0.00,,,0.40,Wunderground v.1.15,2013-04-17 22:53:00,
2013-04-17 17:58:00,35.4,33.0,29.90,NE,42,11.0,16.0,91,0.00,,,0.40,Wunderground v.1.15,2013-04-17 22:58:00,
2013-04-17 18:03:00,35.3,32.9,29.90,NNE,32,14.0,16.0,91,0.00,,,0.40,Wunderground v.1.15,2013-04-17 23:03:00,
2013-04-17 18:08:00,35.2,32.8,29.90,NNE,28,7.0,18.0,91,0.00,,,0.40,Wunderground v.1.15,2013-04-17 23:08:00,
2013-04-17 18:13:00,35.2,32.8,29.89,NE,36,7.0,12.0,91,0.00,,,0.40,Wunderground v.1.15,2013-04-17 23:13:00,
2013-04-17 18:18:00,35.1,32.7,29.90,NE,48,16.0,17.0,91,0.00,,,0.40,Wunderground v.1.15,2013-04-17 23:18:00,
2013-04-17 18:23:00,35.2,33.1,29.90,NE,40,10.0,12.0,92,0.00,,,0.40,Wunderground v.1.15,2013-04-17 23:23:00,
2013-04-17 18:28:00,35.2,32.8,29.92,NE,36,6.0,18.0,91,0.00,,,0.40,Wunderground v.1.15,2013-04-17 23:28:00,
2013-04-17 18:33:00,35.2,32.8,29.93,NE,46,3.0,11.0,91,0.00,,,0.40,Wunderground v.1.15,2013-04-17 23:33:00,
2013-04-17 18:38:00,35.2,33.1,29.96,NE,45,9.0,12.0,92,0.00,,,0.40,Wunderground v.1.15,2013-04-17 23:38:00,
2013-04-17 18:43:00,35.2,33.1,29.97,NE,55,10.0,11.0,92,0.00,,,0.41,Wunderground v.1.15,2013-04-17 23:43:00,
2013-04-17 18:48:00,35.1,33.0,29.93,NE,51,13.0,16.0,92,0.00,,,0.41,Wunderground v.1.15,2013-04-17 23:48:00,
2013-04-17 18:53:00,34.9,32.8,29.92,NE,38,7.0,15.0,92,0.00,,,0.41,Wunderground v.1.15,2013-04-17 23:53:00,
2013-04-17 18:58:00,35.0,32.9,29.93,NE,46,8.0,15.0,92,0.04,,,0.42,Wunderground v.1.15,2013-04-17 23:58:00,
2013-04-17 19:03:00,35.0,32.9,29.93,NE,46,12.0,15.0,92,0.04,,,0.42,Wunderground v.1.15,2013-04-18 00:03:00,
2013-04-17 19:08:00,35.0,32.9,29.94,NE,44,9.0,15.0,92,0.05,,,0.43,Wunderground v.1.15,2013-04-18 00:08:00,
2013-04-17 19:13:00,34.8,32.7,29.93,NE,44,9.0,12.0,92,0.13,,,0.44,Wunderground v.1.15,2013-04-18 00:13:00,
2013-04-17 19:19:00,34.8,32.7,29.94,NE,36,7.0,13.0,92,0.08,,,0.45,Wunderground v.1.15,2013-04-18 00:19:00,
2013-04-17 19:24:00,34.8,32.7,29.95,NE,34,0.0,9.0,92,0.14,,,0.46,Wunderground v.1.15,2013-04-18 00:24:00,
2013-04-17 19:29:00,34.8,32.7,29.95,NE,34,0.0,9.0,92,0.12,,,0.47,Wunderground v.1.15,2013-04-18 00:29:00,
2013-04-17 19:34:00,34.6,32.5,29.93,NNE,33,8.0,12.0,92,0.13,,,0.48,Wunderground v.1.15,2013-04-18 00:34:00,
2013-04-17 19:39:00,34.4,32.3,29.90,NE,42,14.0,18.0,92,0.20,,,0.50,Wunderground v.1.15,2013-04-18 00:39:00,
2013-04-17 19:44:00,34.3,32.2,29.88,NE,43,6.0,15.0,92,0.38,,,0.52,Wunderground v.1.15,2013-04-18 00:44:00,
2013-04-17 19:49:00,34.2,32.1,29.87,NE,42,12.0,15.0,92,0.29,,,0.54,Wunderground v.1.15,2013-04-18 00:49:00,
2013-04-17 19:54:00,33.9,31.8,29.88,NNE,17,12.0,19.0,92,0.26,,,0.56,Wunderground v.1.15,2013-04-18 00:54:00,
2013-04-17 19:59:00,33.9,31.8,29.87,NNE,25,7.0,19.0,92,0.22,,,0.58,Wunderground v.1.15,2013-04-18 00:59:00,
2013-04-17 20:04:00,33.9,31.8,29.87,NE,40,9.0,15.0,92,0.13,,,0.59,Wunderground v.1.15,2013-04-18 01:04:00,
2013-04-17 20:09:00,33.9,31.8,29.87,NNE,29,8.0,15.0,92,0.12,,,0.60,Wunderground v.1.15,2013-04-18 01:09:00,
2013-04-17 20:14:00,33.8,31.7,29.87,NNE,22,8.0,16.0,92,0.06,,,0.60,Wunderground v.1.15,2013-04-18 01:14:00,
2013-04-17 20:19:00,33.7,31.6,29.89,NNE,24,6.0,16.0,92,0.04,,,0.60,Wunderground v.1.15,2013-04-18 01:19:00,
2013-04-17 20:24:00,33.7,31.6,29.89,NNE,19,8.0,11.0,92,0.00,,,0.60,Wunderground v.1.15,2013-04-18 01:24:00,
2013-04-17 20:29:00,33.7,31.6,29.89,NNE,27,6.0,13.0,92,0.00,,,0.60,Wunderground v.1.15,2013-04-18 01:29:00,
2013-04-17 20:34:00,33.6,31.5,29.89,NNE,29,6.0,11.0,92,0.00,,,0.60,Wunderground v.1.15,2013-04-18 01:34:00,
2013-04-17 20:39:00,33.6,31.5,29.89,NNE,32,8.0,13.0,92,0.00,,,0.60,Wunderground v.1.15,2013-04-18 01:39:00,
2013-04-17 20:44:00,33.6,31.5,29.89,NNE,22,8.0,12.0,92,0.00,,,0.60,Wunderground v.1.15,2013-04-18 01:44:00,
2013-04-17 20:49:00,33.6,31.5,29.89,NNE,28,8.0,13.0,92,0.00,,,0.60,Wunderground v.1.15,2013-04-18 01:49:00,
2013-04-17 20:54:00,33.7,31.6,29.89,NE,38,5.0,15.0,92,0.00,,,0.60,Wunderground v.1.15,2013-04-18 01:54:00,
2013-04-17 20:59:00,33.7,31.6,29.88,NE,41,8.0,15.0,92,0.00,,,0.60,Wunderground v.1.15,2013-04-18 01:59:00,
2013-04-17 21:04:00,33.7,31.6,29.89,NNE,22,10.0,14.0,92,0.00,,,0.60,Wunderground v.1.15,2013-04-18 02:04:00,
2013-04-17 21:09:00,33.7,31.6,29.89,NNE,32,8.0,14.0,92,0.00,,,0.60,Wunderground v.1.15,2013-04-18 02:09:00,
2013-04-17 21:15:00,33.7,31.6,29.89,NNE,24,7.0,14.0,92,0.00,,,0.60,Wunderground v.1.15,2013-04-18 02:15:00,
2013-04-17 21:20:00,33.7,31.6,29.90,NNE,22,4.0,14.0,92,0.00,,,0.60,Wunderground v.1.15,2013-04-18 02:20:00,
2013-04-17 21:25:00,33.7,31.6,29.90,NNE,25,1.0,11.0,92,0.00,,,0.60,Wunderground v.1.15,2013-04-18 02:25:00,
2013-04-17 21:30:00,33.6,31.5,29.91,NE,35,6.0,11.0,92,0.00,,,0.60,Wunderground v.1.15,2013-04-18 02:30:00,
2013-04-17 21:35:00,33.5,31.4,29.92,NNE,26,5.0,10.0,92,0.00,,,0.60,Wunderground v.1.15,2013-04-18 02:35:00,
2013-04-17 21:40:00,33.5,31.4,29.92,NNE,26,0.0,10.0,92,0.00,,,0.60,Wunderground v.1.15,2013-04-18 02:40:00,
2013-04-17 21:45:00,33.5,31.4,29.92,NNE,27,0.0,5.0,92,0.00,,,0.60,Wunderground v.1.15,2013-04-18 02:45:00,
2013-04-17 21:50:00,33.4,31.3,29.92,NNE,27,1.0,5.0,92,0.00,,,0.60,Wunderground v.1.15,2013-04-18 02:50:00,
2013-04-17 21:55:00,33.3,31.2,29.92,NNE,26,1.0,7.0,92,0.00,,,0.60,Wunderground v.1.15,2013-04-18 02:55:00,
2013-04-17 22:00:00,33.2,31.1,29.92,NNE,26,0.0,7.0,92,0.00,,,0.60,Wunderground v.1.15,2013-04-18 03:00:00,
2013-04-17 22:05:00,33.2,31.1,29.92,NNE,25,1.0,5.0,92,0.00,,,0.60,Wunderground v.1.15,2013-04-18 03:05:00,
2013-04-17 22:10:00,33.0,30.9,29.92,NNE,24,0.0,5.0,92,0.00,,,0.61,Wunderground v.1.15,2013-04-18 03:10:00,
2013-04-17 22:15:00,33.0,30.9,29.92,NNE,23,1.0,3.0,92,0.00,,,0.61,Wunderground v.1.15,2013-04-18 03:15:00,
2013-04-17 22:22:00,32.8,30.7,29.91,North,360,3.0,3.0,92,0.00,,,0.61,Wunderground v.1.15,2013-04-18 03:22:00,
2013-04-17 22:27:00,32.8,30.7,29.91,North,349,1.0,7.0,92,0.00,,,0.61,Wunderground v.1.15,2013-04-18 03:27:00,
2013-04-17 22:33:00,32.7,30.6,29.90,NNW,346,2.0,4.0,92,0.00,,,0.61,Wunderground v.1.15,2013-04-18 03:33:00,
2013-04-17 22:38:00,32.6,30.5,29.91,NNW,346,3.0,9.0,92,0.00,,,0.61,Wunderground v.1.15,2013-04-18 03:38:00,
2013-04-17 22:43:00,32.6,30.5,29.91,NNW,348,1.0,5.0,92,0.00,,,0.61,Wunderground v.1.15,2013-04-18 03:43:00,
2013-04-17 22:48:00,32.5,30.4,29.91,NNW,348,3.0,6.0,92,0.00,,,0.61,Wunderground v.1.15,2013-04-18 03:48:00,
2013-04-17 22:53:00,32.5,30.4,29.91,NNW,346,5.0,5.0,92,0.00,,,0.61,Wunderground v.1.15,2013-04-18 03:53:00,
2013-04-17 22:58:00,32.5,30.4,29.91,NNW,346,4.0,5.0,92,0.00,,,0.62,Wunderground v.1.15,2013-04-18 03:58:00,
2013-04-17 23:02:00,32.4,30.3,29.90,North,355,5.0,5.0,92,0.00,,,0.62,Wunderground v.1.15,2013-04-18 04:02:00,
2013-04-17 23:07:00,32.4,30.3,29.90,NNW,348,0.0,8.0,92,0.00,,,0.62,Wunderground v.1.15,2013-04-18 04:07:00,
2013-04-17 23:12:00,32.3,30.2,29.89,NNW,347,2.0,3.0,92,0.00,,,0.62,Wunderground v.1.15,2013-04-18 04:12:00,
2013-04-17 23:17:00,32.3,30.2,29.90,NNW,348,1.0,6.0,92,0.00,,,0.62,Wunderground v.1.15,2013-04-18 04:17:00,
2013-04-17 23:22:00,32.3,30.2,29.89,North,349,4.0,4.0,92,0.00,,,0.62,Wunderground v.1.15,2013-04-18 04:22:00,
2013-04-17 23:27:00,32.2,30.1,29.88,North,349,2.0,5.0,92,0.00,,,0.62,Wunderground v.1.15,2013-04-18 04:27:00,
2013-04-17 23:32:00,32.2,30.1,29.87,North,355,2.0,3.0,92,0.00,,,0.62,Wunderground v.1.15,2013-04-18 04:32:00,
2013-04-17 23:37:00,32.2,30.1,29.87,North,355,0.0,7.0,92,0.00,,,0.62,Wunderground v.1.15,2013-04-18 04:37:00,
2013-04-17 23:42:00,32.1,30.0,29.87,North,355,1.0,3.0,92,0.00,,,0.62,Wunderground v.1.15,2013-04-18 04:42:00,
2013-04-17 23:47:00,32.1,30.0,29.87,North,360,3.0,4.0,92,0.00,,,0.62,Wunderground v.1.15,2013-04-18 04:47:00,
2013-04-17 23:52:00,32.1,30.0,29.86,NNE,20,10.0,10.0,92,0.00,,,0.62,Wunderground v.1.15,2013-04-18 04:52:00,
2013-04-17 23:57:00,32.1,30.0,29.87,NNE,30,9.0,12.0,92,0.00,,,0.62,Wunderground v.1.15,2013-04-18 04:57:00,